• In Hungary
  • List of Countries
  • For 7 days
  • Water Temperature
  • Satellite Maps
  • Weather Map
  • News
  • Weather Widgets
  • user-avatar
    Login

    Hourly Weather Krasnohutorskiy

    Today, 20 October, Saturday

    Time Temperature Precipitation Wind Pressure Humidity
    00:00 +11°C° 0 mm 3 mps 747 mmHg 66%
    01:00 +10°C° 0 mm 3 mps 746 mmHg 67%
    02:00 +10°C° 0 mm 3 mps 746 mmHg 68%
    03:00 +9°C° 0 mm 3 mps 746 mmHg 73%
    04:00 +9°C° 0 mm 2 mps 746 mmHg 74%
    05:00 +9°C° 0 mm 2 mps 746 mmHg 76%
    06:00 +9°C° 0 mm 2 mps 746 mmHg 77%
    07:00 +10°C° 0 mm 2 mps 746 mmHg 75%
    08:00 +10°C° 0 mm 2 mps 746 mmHg 73%
    09:00 +13°C° 0 mm 2 mps 746 mmHg 71%
    10:00 +14°C° 0 mm 2 mps 746 mmHg 69%
    11:00 +15°C° 0 mm 2 mps 747 mmHg 66%
    12:00 +16°C° 0 mm 2 mps 747 mmHg 63%
    13:00 +16°C° 0 mm 2 mps 747 mmHg 63%
    14:00 +17°C° 0 mm 2 mps 747 mmHg 64%
    15:00 +17°C° 0 mm 3 mps 747 mmHg 64%
    16:00 +16°C° 0 mm 3 mps 747 mmHg 67%
    17:00 +14°C° 0 mm 3 mps 747 mmHg 70%
    18:00 +12°C° 0 mm 3 mps 747 mmHg 73%
    19:00 +12°C° 0 mm 3 mps 747 mmHg 73%
    20:00 +11°C° 0 mm 3 mps 747 mmHg 73%
    21:00 +11°C° 0 mm 3 mps 748 mmHg 72%
    22:00 +10°C° 0 mm 3 mps 748 mmHg 72%
    23:00 +10°C° 0 mm 4 mps 748 mmHg 72%

    Tomorrow, 21 October, Sunday

    Time Temperature Precipitation Wind Pressure Humidity
    00:00 +8°C° 0 mm 4 mps 748 mmHg 72%
    01:00 +8°C° 0 mm 3 mps 748 mmHg 72%
    02:00 +8°C° 0 mm 3 mps 748 mmHg 73%
    03:00 +8°C° 0 mm 3 mps 749 mmHg 74%
    04:00 +7°C° 0 mm 3 mps 749 mmHg 75%
    05:00 +7°C° 0 mm 3 mps 749 mmHg 77%
    06:00 +5°C° 0 mm 3 mps 749 mmHg 78%
    07:00 +6°C° 0 mm 4 mps 749 mmHg 76%
    08:00 +7°C° 0 mm 4 mps 749 mmHg 74%
    09:00 +7°C° 0 mm 4 mps 750 mmHg 71%
    10:00 +8°C° 0 mm 4 mps 750 mmHg 68%
    11:00 +10°C° 0 mm 4 mps 750 mmHg 64%
    12:00 +11°C° 0 mm 4 mps 751 mmHg 60%
    13:00 +11°C° 0 mm 4 mps 750 mmHg 60%
    14:00 +12°C° 0 mm 4 mps 750 mmHg 59%
    15:00 +12°C° 0 mm 4 mps 750 mmHg 58%
    16:00 +11°C° 0 mm 4 mps 751 mmHg 60%
    17:00 +11°C° 0 mm 4 mps 751 mmHg 62%
    18:00 +10°C° 0 mm 3 mps 751 mmHg 64%
    19:00 +10°C° 0 mm 3 mps 751 mmHg 64%
    20:00 +10°C° 0 mm 3 mps 751 mmHg 64%
    21:00 +10°C° 0 mm 3 mps 752 mmHg 64%
    22:00 +9°C° 0 mm 3 mps 752 mmHg 65%
    23:00 +9°C° 0 mm 3 mps 752 mmHg 66%

    Day after tomorrow, 22 October, Monday

    Time Temperature Precipitation Wind Pressure Humidity
    00:00 +9°C° 0 mm 3 mps 752 mmHg 67%
    01:00 +9°C° 0 mm 3 mps 752 mmHg 68%
    02:00 +9°C° 0 mm 3 mps 752 mmHg 69%
    03:00 +8°C° 0 mm 3 mps 752 mmHg 70%
    04:00 +8°C° 0 mm 3 mps 752 mmHg 70%
    05:00 +7°C° 0 mm 4 mps 752 mmHg 70%
    06:00 +7°C° 0 mm 4 mps 752 mmHg 71%
    07:00 +7°C° 0 mm 4 mps 752 mmHg 70%
    08:00 +7°C° 0 mm 4 mps 752 mmHg 70%
    09:00 +8°C° 0 mm 4 mps 752 mmHg 70%
    10:00 +8°C° 0 mm 4 mps 752 mmHg 68%
    11:00 +10°C° 0 mm 4 mps 752 mmHg 66%
    12:00 +10°C° 0 mm 4 mps 752 mmHg 65%
    13:00 +11°C° 0 mm 4 mps 752 mmHg 64%
    14:00 +12°C° 0 mm 4 mps 751 mmHg 63%
    15:00 +12°C° 0 mm 4 mps 751 mmHg 62%
    16:00 +12°C° 0 mm 3 mps 751 mmHg 64%
    17:00 +11°C° 0 mm 3 mps 750 mmHg 67%
    18:00 +10°C° 0 mm 3 mps 750 mmHg 70%
    19:00 +10°C° 0 mm 3 mps 750 mmHg 69%
    20:00 +10°C° 0 mm 4 mps 750 mmHg 69%
    21:00 +10°C° 0 mm 4 mps 750 mmHg 69%
    22:00 +10°C° 0 mm 4 mps 749 mmHg 68%
    23:00 +9°C° 0 mm 5 mps 749 mmHg 68%

    23 October, Tuesday

    Time Temperature Precipitation Wind Pressure Humidity
    00:00 +9°C° 0 mm 5 mps 748 mmHg 68%
    01:00 +9°C° 0.2 mm 5 mps 748 mmHg 71%
    02:00 +9°C° 0.2 mm 5 mps 747 mmHg 74%
    03:00 +8°C° 0.2 mm 5 mps 746 mmHg 77%
    04:00 +9°C° 0.4 mm 6 mps 746 mmHg 76%
    05:00 +9°C° 0.4 mm 6 mps 745 mmHg 75%
    06:00 +9°C° 0.4 mm 6 mps 744 mmHg 74%
    07:00 +10°C° 0 mm 6 mps 744 mmHg 72%
    08:00 +10°C° 0 mm 7 mps 743 mmHg 71%
    09:00 +11°C° 0 mm 7 mps 743 mmHg 69%
    10:00 +11°C° 0 mm 7 mps 742 mmHg 70%
    11:00 +12°C° 0 mm 7 mps 742 mmHg 71%
    12:00 +12°C° 0 mm 7 mps 742 mmHg 73%
    13:00 +12°C° 0 mm 7 mps 742 mmHg 73%
    14:00 +11°C° 0 mm 6 mps 741 mmHg 73%
    15:00 +11°C° 0 mm 6 mps 741 mmHg 74%
    16:00 +12°C° 0 mm 5 mps 741 mmHg 75%
    17:00 +11°C° 0 mm 4 mps 741 mmHg 76%
    18:00 +11°C° 0 mm 4 mps 741 mmHg 77%
    19:00 +11°C° 0 mm 4 mps 741 mmHg 76%
    20:00 +10°C° 0 mm 4 mps 741 mmHg 76%
    21:00 +10°C° 0 mm 4 mps 741 mmHg 75%
    22:00 +10°C° 0 mm 3 mps 741 mmHg 77%
    23:00 +9°C° 0 mm 3 mps 740 mmHg 79%

    24 October, Wednesday

    Time Temperature Precipitation Wind Pressure Humidity
    00:00 +8°C° 0 mm 3 mps 740 mmHg 81%
    01:00 +8°C° 0 mm 3 mps 739 mmHg 83%
    02:00 +7°C° 0 mm 3 mps 739 mmHg 85%
    03:00 +5°C° 0 mm 3 mps 739 mmHg 86%
    04:00 +5°C° 0 mm 3 mps 738 mmHg 86%
    05:00 +5°C° 0 mm 3 mps 738 mmHg 86%
    06:00 +4°C° 0 mm 4 mps 738 mmHg 85%
    07:00 +5°C° 0 mm 4 mps 738 mmHg 80%
    08:00 +6°C° 0 mm 5 mps 737 mmHg 75%
    09:00 +7°C° 0 mm 6 mps 737 mmHg 71%
    10:00 +8°C° 0 mm 6 mps 737 mmHg 64%
    11:00 +9°C° 0 mm 6 mps 736 mmHg 57%
    12:00 +10°C° 0 mm 7 mps 736 mmHg 50%
    13:00 +10°C° 0 mm 7 mps 735 mmHg 49%
    14:00 +11°C° 0 mm 6 mps 735 mmHg 48%
    15:00 +11°C° 0 mm 6 mps 734 mmHg 46%
    16:00 +10°C° 0 mm 6 mps 734 mmHg 49%
    17:00 +10°C° 0 mm 5 mps 733 mmHg 51%
    18:00 +10°C° 0 mm 4 mps 733 mmHg 54%
    19:00 +9°C° 0 mm 5 mps 732 mmHg 55%
    20:00 +9°C° 0 mm 6 mps 732 mmHg 57%
    21:00 +9°C° 0 mm 7 mps 731 mmHg 59%
    22:00 +10°C° 0.1 mm 7 mps 731 mmHg 65%
    23:00 +10°C° 0.1 mm 8 mps 730 mmHg 72%

    25 October, Thursday

    Time Temperature Precipitation Wind Pressure Humidity
    00:00 +10°C° 0.1 mm 8 mps 730 mmHg 79%
    01:00 +10°C° 0.6 mm 7 mps 729 mmHg 82%
    02:00 +10°C° 0.6 mm 7 mps 728 mmHg 85%
    03:00 +10°C° 0.6 mm 6 mps 728 mmHg 88%
    04:00 +10°C° 0.3 mm 6 mps 727 mmHg 89%
    05:00 +9°C° 0.3 mm 6 mps 727 mmHg 89%
    06:00 +9°C° 0.3 mm 6 mps 727 mmHg 90%
    07:00 +9°C° 0.2 mm 6 mps 727 mmHg 88%
    08:00 +9°C° 0.2 mm 6 mps 727 mmHg 86%
    09:00 +9°C° 0.2 mm 6 mps 727 mmHg 84%
    10:00 +9°C° 0.5 mm 6 mps 727 mmHg 83%
    11:00 +10°C° 0.5 mm 6 mps 727 mmHg 82%
    12:00 +10°C° 0.5 mm 5 mps 727 mmHg 81%
    13:00 +10°C° 0.3 mm 6 mps 727 mmHg 79%
    14:00 +10°C° 0.3 mm 6 mps 727 mmHg 78%
    15:00 +10°C° 0.3 mm 6 mps 727 mmHg 76%
    16:00 +9°C° 0.3 mm 7 mps 727 mmHg 74%
    17:00 +8°C° 0.3 mm 7 mps 727 mmHg 72%
    18:00 +6°C° 0.3 mm 7 mps 727 mmHg 70%
    19:00 +6°C° 0 mm 7 mps 728 mmHg 70%
    20:00 +5°C° 0 mm 7 mps 728 mmHg 70%
    21:00 +4°C° 0 mm 6 mps 729 mmHg 71%
    22:00 +4°C° 0 mm 6 mps 729 mmHg 73%
    23:00 +3°C° 0 mm 6 mps 730 mmHg 76%
    Show more